GW2891 Weather Reports


time (UTC)temp
C
wind
direction
speed
KPH
gust
KPH
rain 1hr
cm
rain 24hr
cm
rain mn
cm
humidity
%
barometer
mb
20260906100017 16 25 0.0 0.0 0.00 0.00 0.00 90 1015.1
20260906094547 17 25 0.0 0.0 0.00 0.00 0.00 89 1014.9
20260906093020 17 343 0.0 0.0 0.00 0.00 0.00 89 1014.7
20260906091535 17 316 0.0 0.0 0.00 0.00 0.00 89 1014.7
20260906084543 18 360 0.0 0.0 0.00 0.00 0.00 88 1014.9
20260906083047 18 23 1.6 0.0 0.00 0.00 0.00 87 1014.7
20260906081514 18 13 1.6 0.0 0.00 0.00 0.00 88 1014.6
20260906080041 18 355 1.6 0.0 0.00 0.00 0.00 89 1014.7
20260906074506 18 5 3.2 0.0 0.00 0.00 0.00 92 1014.7
20260906073039 19 360 3.2 0.0 0.00 0.00 0.00 94 1014.6
20260906071500 20 15 1.6 0.0 0.00 0.00 0.00 94 1014.6
20260906070039 20 16 0.0 0.0 0.00 0.00 0.00 95 1014.7
20260906064504 20 19 0.0 0.0 0.00 0.00 0.00 94 1014.5
20260906063029 20 5 0.0 0.0 0.00 0.00 0.00 93 1014.5
20260906061545 20 5 0.0 0.0 0.00 0.00 0.00 93 1014.5
20260906060011 20 13 1.6 0.0 0.00 0.00 0.00 92 1014.5
20260906054538 20 349 0.0 0.0 0.00 0.00 0.00 92 1014.3
20260906053006 21 355 0.0 0.0 0.00 0.00 0.00 92 1014.2
20260906051534 21 24 0.0 0.0 0.00 0.00 0.00 91 1014.0
20260906050002 21 355 0.0 0.0 0.00 0.00 0.00 91 1014.0
20260906044531 21 33 1.6 0.0 0.00 0.00 0.00 91 1013.8
20260906043050 21 5 1.6 0.0 0.00 0.00 0.33 91 1013.7
20260906041510 21 341 0.0 0.0 0.00 0.00 0.33 90 1013.6
20260906040039 21 5 0.0 0.0 0.00 0.00 0.33 90 1013.4
20260906034550 21 5 0.0 0.0 0.00 0.00 0.33 90 1013.4
20260906033021 21 360 0.0 0.0 0.00 0.00 0.33 90 1013.3
20260906031525 21 355 1.6 0.0 0.00 0.00 0.33 90 1013.3
20260906030046 21 22 1.6 0.0 0.00 0.00 0.33 90 1013.1
20260906024627 21 24 1.6 0.0 0.00 0.00 0.33 90 1013.1
20260906023027 22 323 1.6 0.0 0.00 0.00 0.33 89 1013.0
20260906021547 22 332 1.6 0.0 0.00 0.00 0.33 88 1012.9
20260906020101 22 321 1.6 0.0 0.00 0.00 0.33 89 1013.0
20260906014540 22 5 1.6 0.0 0.00 0.00 0.33 89 1012.8
20260906013057 22 34 3.2 0.0 0.00 0.00 0.33 89 1012.8
20260906011535 22 308 3.2 0.0 0.00 0.00 0.33 90 1012.5
20260906010045 22 16 0.0 0.0 0.00 0.00 0.33 89 1012.3
20260906004519 22 5 3.2 0.0 0.00 0.00 0.33 89 1012.0
20260906003048 23 35 3.2 0.0 0.00 0.00 0.33 88 1011.8
20260906001506 23 328 4.8 0.0 0.00 0.00 0.33 87 1011.8
20260906000036 24 342 3.2 0.0 0.00 0.00 0.33 86 1011.6
20260905234503 25 323 1.6 0.0 0.00 0.00 0.33 85 1011.5
20260905233032 25 19 1.6 0.0 0.00 0.00 0.33 84 1011.3
20260905231551 26 38 3.2 0.0 0.00 0.00 0.33 82 1011.3
20260905230018 27 121 3.2 0.0 0.00 0.00 0.33 80 1011.0
20260905224544 27 355 3.2 0.0 0.00 0.00 0.33 81 1010.7
20260905223009 27 281 1.6 0.0 0.00 0.00 0.33 83 1010.6
20260905221527 27 9 3.2 0.0 0.00 0.00 0.33 82 1010.4
20260905220055 27 34 4.8 0.0 0.00 0.00 0.33 82 1010.2
20260905214524 27 25 3.2 0.0 0.00 0.00 0.33 84 1010.1
20260905213045 27 22 1.6 0.0 0.00 0.00 0.33 85 1010.0
20260905211510 27 5 0.0 0.0 0.00 0.00 0.33 86 1010.1
20260905210038 26 5 0.0 0.0 0.00 0.00 0.33 90 1010.2
20260905204505 27 5 3.2 0.0 0.00 0.00 0.30 84 1010.4
20260905203023 30 37 1.6 0.0 0.00 0.00 0.00 74 1010.2
20260905201552 30 269 1.6 0.0 0.00 0.00 0.00 73 1010.2
20260905200019 30 9 1.6 0.0 0.00 0.00 0.00 78 1010.4
20260905194545 30 346 1.6 0.0 0.00 0.00 0.00 80 1010.5
20260905193004 29 38 0.0 0.0 0.00 0.00 0.00 78 1010.6
20260905191531 29 38 1.6 0.0 0.00 0.00 0.00 79 1010.8
20260905190055 28 248 1.6 0.0 0.00 0.00 0.00 83 1011.0
20260905184518 27 288 3.2 0.0 0.00 0.00 0.00 83 1011.1
20260905183046 27 226 1.6 0.0 0.00 0.00 0.00 83 1011.2
20260905181501 27 355 1.6 0.0 0.00 0.00 0.00 85 1011.4
20260905180019 27 246 0.0 0.0 0.00 0.00 0.00 82 1011.5
20260905174537 27 245 1.6 0.0 0.00 0.00 0.00 82 1011.4
20260905173005 27 273 3.2 0.0 0.00 0.00 0.00 84 1011.4
20260905171533 27 209 3.2 0.0 0.00 0.00 0.00 83 1011.6
20260905170057 26 195 3.2 0.0 0.00 0.00 0.00 83 1011.7
20260905164519 26 272 1.6 0.0 0.00 0.00 0.00 84 1012.0
20260905163046 25 267 1.6 0.0 0.00 0.00 0.00 85 1012.0
20260905161504 25 259 0.0 0.0 0.00 0.00 0.00 85 1012.2
20260905160042 25 259 1.6 0.0 0.00 0.00 0.00 85 1012.1
20260905154556 25 137 3.2 0.0 0.00 0.00 0.00 86 1012.0
20260905153015 24 263 3.2 0.0 0.00 0.00 0.00 86 1011.9
20260905151530 23 277 1.6 0.0 0.00 0.00 0.00 87 1011.8
20260905150008 23 213 1.6 0.0 0.00 0.00 0.00 88 1012.2
20260905144533 23 206 1.6 0.0 0.00 0.00 0.00 88 1012.0
20260905143054 23 228 1.6 0.0 0.00 0.00 0.00 88 1012.0
20260905141503 23 205 0.0 0.0 0.00 0.00 0.00 88 1011.8
20260905140030 23 246 3.2 0.0 0.00 0.00 0.00 89 1011.7
20260905134537 23 279 4.8 0.0 0.00 0.00 0.00 89 1011.2
20260905133041 22 194 3.2 0.0 0.00 0.00 0.00 90 1011.2
20260905131514 22 228 3.2 0.0 0.00 0.00 0.00 91 1011.0
20260905130028 22 263 1.6 0.0 0.00 0.00 0.00 91 1011.1
20260905124559 21 196 1.6 0.0 0.00 0.00 0.00 91 1011.0
20260905123026 21 257 1.6 0.0 0.00 0.00 0.00 92 1011.0
20260905121545 21 227 0.0 0.0 0.00 0.00 0.00 92 1011.2
20260905120012 21 238 1.6 0.0 0.00 0.00 0.00 92 1010.9
20260905114544 21 218 1.6 0.0 0.00 0.00 0.00 92 1010.8
20260905113009 21 242 0.0 0.0 0.00 0.00 0.00 92 1010.8
20260905111542 21 213 1.6 0.0 0.00 0.00 0.00 91 1010.5
20260905110001 22 298 1.6 0.0 0.00 0.00 0.00 91 1010.4
20260905104531 22 202 1.6 0.0 0.00 0.00 0.00 91 1010.3
20260905103049 22 201 1.6 0.0 0.00 0.00 0.00 91 1010.4
20260905101518 22 284 0.0 0.0 0.00 0.00 0.00 91 1010.4